THY8SA LTFM-LTBS

Flight info

Callsign THY8SA
Flight time 0h 45m
Altitude 36000
Route RATVU1H/18 RATVU UT35 NUMTI DCT KULAR UT44 ATSAL
Aircraft B738/M-SDE2E3FGHIRWXY/LB1

Departure

Time 2026-04-26 13:10
Airport İstanbul Airport (LTFM)

Arrival

Time 2026-04-26 13:55
Airport Dalaman International Airport (LTBS)
Time Latitude Longitude Altitude Speed Heading
2026-04-26 12:16 41.25239 28.74899 333 ft 0 kts 269°
2026-04-26 12:53 41.25239 28.74915 333 ft 4 kts 269°
2026-04-26 12:53 41.25240 28.74943 333 ft 4 kts 273°
2026-04-26 12:53 41.25232 28.74968 333 ft 4 kts 343°
2026-04-26 12:54 41.25208 28.74971 328 ft 3 kts 359°
2026-04-26 12:54 41.25204 28.74971 328 ft 0 kts 359°
2026-04-26 12:58 41.25210 28.74971 328 ft 7 kts 359°
2026-04-26 12:58 41.25317 28.74969 328 ft 17 kts 359°
2026-04-26 12:58 41.25416 28.74967 331 ft 13 kts 359°
2026-04-26 12:59 41.25502 28.74964 331 ft 12 kts 358°
2026-04-26 12:59 41.25571 28.74963 330 ft 4 kts 359°
2026-04-26 12:59 41.25583 28.74963 330 ft 0 kts 358°
2026-04-26 13:00 41.25584 28.74963 333 ft 1 kts 358°
2026-04-26 13:01 41.25637 28.74973 330 ft 12 kts 33°
2026-04-26 13:01 41.25646 28.75062 332 ft 11 kts 88°
2026-04-26 13:01 41.25648 28.75176 329 ft 15 kts 88°
2026-04-26 13:01 41.25649 28.75308 321 ft 7 kts 89°
2026-04-26 13:02 41.25650 28.75330 331 ft 0 kts 88°
2026-04-26 13:02 41.25650 28.75342 332 ft 4 kts 89°
2026-04-26 13:02 41.25670 28.75395 331 ft 9 kts 33°
2026-04-26 13:03 41.25747 28.75403 332 ft 15 kts 358°
2026-04-26 13:03 41.25900 28.75399 333 ft 26 kts 359°
2026-04-26 13:03 41.26080 28.75395 332 ft 26 kts 359°
2026-04-26 13:03 41.26235 28.75392 332 ft 22 kts 359°
2026-04-26 13:04 41.26383 28.75389 332 ft 21 kts 359°
2026-04-26 13:04 41.26525 28.75385 329 ft 20 kts 360°
2026-04-26 13:04 41.26672 28.75382 332 ft 23 kts 359°
2026-04-26 13:04 41.26845 28.75378 333 ft 27 kts 359°
2026-04-26 13:05 41.27030 28.75373 332 ft 24 kts 359°
2026-04-26 13:05 41.27190 28.75369 330 ft 23 kts 358°
2026-04-26 13:05 41.27345 28.75366 329 ft 22 kts 359°
2026-04-26 13:05 41.27496 28.75363 332 ft 21 kts 359°
2026-04-26 13:06 41.27643 28.75358 331 ft 21 kts 358°
2026-04-26 13:06 41.27786 28.75356 332 ft 20 kts 359°
2026-04-26 13:06 41.27925 28.75352 330 ft 20 kts 358°
2026-04-26 13:06 41.28065 28.75349 332 ft 20 kts 359°
2026-04-26 13:07 41.28201 28.75346 333 ft 20 kts 359°
2026-04-26 13:07 41.28351 28.75342 331 ft 22 kts 359°
2026-04-26 13:07 41.28510 28.75338 332 ft 24 kts 359°
2026-04-26 13:07 41.28675 28.75335 330 ft 23 kts 359°
2026-04-26 13:08 41.28805 28.75342 332 ft 1 kts 38°
2026-04-26 13:08 41.28813 28.75366 330 ft 7 kts 73°
2026-04-26 13:08 41.28817 28.75435 329 ft 7 kts 87°
2026-04-26 13:08 41.28818 28.75473 333 ft 3 kts 88°
2026-04-26 13:09 41.28815 28.75576 330 ft 16 kts 109°
2026-04-26 13:09 41.28711 28.75619 333 ft 19 kts 179°
2026-04-26 13:09 41.28314 28.75625 330 ft 102 kts 180°
2026-04-26 13:09 41.27356 28.75650 517 ft 158 kts 181°
2026-04-26 13:10 41.26263 28.75671 1458 ft 166 kts 178°
2026-04-26 13:10 41.25141 28.76262 2351 ft 188 kts 150°
2026-04-26 13:10 41.23972 28.77334 2779 ft 221 kts 149°
2026-04-26 13:10 41.22622 28.78554 3098 ft 244 kts 148°
2026-04-26 13:11 41.21178 28.79808 3682 ft 252 kts 148°
2026-04-26 13:11 41.19693 28.81098 4406 ft 258 kts 148°
2026-04-26 13:11 41.18023 28.82127 4825 ft 272 kts 171°
2026-04-26 13:11 41.16158 28.82303 5651 ft 274 kts 185°
2026-04-26 13:12 41.14246 28.82169 6599 ft 277 kts 187°
2026-04-26 13:12 41.12307 28.82004 7539 ft 280 kts 187°
2026-04-26 13:12 41.10354 28.81856 8481 ft 283 kts 186°
2026-04-26 13:12 41.08347 28.81712 9420 ft 287 kts 186°
2026-04-26 13:13 41.06341 28.81578 10279 ft 292 kts 186°
2026-04-26 13:13 41.04268 28.81441 10605 ft 316 kts 186°
2026-04-26 13:13 41.01980 28.81291 10835 ft 342 kts 185°
2026-04-26 13:13 40.99552 28.81137 11356 ft 354 kts 185°
2026-04-26 13:14 40.97034 28.80980 12100 ft 360 kts 185°
2026-04-26 13:14 40.94508 28.81045 12900 ft 367 kts 177°
2026-04-26 13:14 40.91948 28.81433 13689 ft 373 kts 174°
2026-04-26 13:14 40.89347 28.81689 14426 ft 376 kts 182°
2026-04-26 13:15 40.86723 28.81620 15262 ft 378 kts 184°
2026-04-26 13:15 40.84083 28.81501 16073 ft 382 kts 184°
2026-04-26 13:15 40.81418 28.81375 16879 ft 385 kts 184°
2026-04-26 13:15 40.79640 28.81296 17407 ft 388 kts 184°
2026-04-26 13:16 40.75997 28.81149 18416 ft 394 kts 184°
2026-04-26 13:16 40.73243 28.81051 19082 ft 398 kts 183°
2026-04-26 13:16 40.70461 28.80959 19750 ft 402 kts 183°
2026-04-26 13:16 40.67651 28.80872 20407 ft 406 kts 183°
2026-04-26 13:17 40.61953 28.80701 21636 ft 414 kts 182°
2026-04-26 13:17 40.59059 28.80616 22246 ft 418 kts 182°
2026-04-26 13:18 40.53192 28.80444 23475 ft 425 kts 182°
2026-04-26 13:18 40.50217 28.80357 23968 ft 429 kts 182°
2026-04-26 13:18 40.44220 28.80181 25106 ft 431 kts 182°
2026-04-26 13:19 40.41230 28.80095 25763 ft 429 kts 182°
2026-04-26 13:19 40.38210 28.79993 25973 ft 440 kts 183°
2026-04-26 13:19 40.35122 28.79832 26245 ft 448 kts 184°
2026-04-26 13:19 40.31997 28.79641 26705 ft 450 kts 184°
2026-04-26 13:20 40.28868 28.79441 27204 ft 452 kts 184°
2026-04-26 13:20 40.25716 28.79247 27624 ft 455 kts 182°
2026-04-26 13:20 40.22532 28.79326 27967 ft 460 kts 178°
2026-04-26 13:20 40.19327 28.79598 28354 ft 464 kts 176°
2026-04-26 13:21 40.16099 28.79934 28761 ft 466 kts 176°
2026-04-26 13:21 40.13955 28.80166 29026 ft 468 kts 176°
2026-04-26 13:21 40.10702 28.80510 29405 ft 471 kts 176°
2026-04-26 13:21 40.07421 28.80841 29773 ft 474 kts 176°
2026-04-26 13:22 40.04122 28.81157 30067 ft 478 kts 176°
2026-04-26 13:22 40.00799 28.81463 30386 ft 479 kts 176°
2026-04-26 13:22 39.97478 28.81761 30851 ft 477 kts 176°
2026-04-26 13:22 39.94173 28.82053 31332 ft 475 kts 176°
2026-04-26 13:23 39.90872 28.82343 31725 ft 476 kts 176°
2026-04-26 13:23 39.87565 28.82633 32074 ft 476 kts 176°
2026-04-26 13:23 39.84259 28.82923 32444 ft 477 kts 176°
2026-04-26 13:23 39.80946 28.83214 32823 ft 477 kts 176°
2026-04-26 13:24 39.77632 28.83506 33243 ft 477 kts 176°
2026-04-26 13:24 39.74325 28.83797 33669 ft 476 kts 176°
2026-04-26 13:24 39.71025 28.84087 34037 ft 476 kts 176°
2026-04-26 13:24 39.67722 28.84378 34357 ft 475 kts 176°
2026-04-26 13:25 39.64426 28.84667 34701 ft 475 kts 176°
2026-04-26 13:25 39.61136 28.84955 35028 ft 474 kts 176°
2026-04-26 13:25 39.57836 28.85245 35386 ft 473 kts 176°
2026-04-26 13:25 39.54555 28.85532 35743 ft 472 kts 176°
2026-04-26 13:26 39.51274 28.85819 35981 ft 474 kts 176°
2026-04-26 13:26 39.44646 28.86397 35980 ft 478 kts 176°
2026-04-26 13:27 39.38040 28.86973 35954 ft 472 kts 176°
2026-04-26 13:27 39.31509 28.87541 35985 ft 471 kts 176°
2026-04-26 13:28 39.24968 28.88109 35979 ft 471 kts 176°
2026-04-26 13:28 39.18418 28.88676 35969 ft 472 kts 176°
2026-04-26 13:29 39.11858 28.89244 35975 ft 472 kts 176°
2026-04-26 13:29 39.05291 28.89811 35977 ft 473 kts 176°
2026-04-26 13:30 38.98720 28.90377 35973 ft 474 kts 176°
2026-04-26 13:30 38.92143 28.90943 35975 ft 474 kts 176°
2026-04-26 13:30 38.88847 28.91221 35848 ft 476 kts 176°
2026-04-26 13:31 38.85531 28.91499 35399 ft 477 kts 176°
2026-04-26 13:31 38.82234 28.91781 34810 ft 473 kts 175°
2026-04-26 13:31 38.78952 28.92068 34214 ft 472 kts 175°
2026-04-26 13:31 38.75676 28.92353 33504 ft 472 kts 175°
2026-04-26 13:32 38.72412 28.92634 33002 ft 467 kts 175°
2026-04-26 13:32 38.69201 28.92909 32533 ft 462 kts 175°
2026-04-26 13:32 38.66004 28.93181 32072 ft 456 kts 175°
2026-04-26 13:32 38.62851 28.93449 31634 ft 451 kts 174°
2026-04-26 13:33 38.59735 28.93714 31199 ft 446 kts 175°
2026-04-26 13:33 38.56654 28.93976 30758 ft 442 kts 174°
2026-04-26 13:33 38.53604 28.94235 30336 ft 437 kts 174°
2026-04-26 13:33 38.50577 28.94492 29888 ft 433 kts 174°
2026-04-26 13:34 38.47583 28.94746 29406 ft 429 kts 174°
2026-04-26 13:34 38.44627 28.94997 28962 ft 423 kts 174°
2026-04-26 13:34 38.41704 28.95245 28530 ft 418 kts 174°
2026-04-26 13:34 38.39749 28.95410 28228 ft 415 kts 174°
2026-04-26 13:35 38.35960 28.95731 27660 ft 409 kts 174°
2026-04-26 13:35 38.33131 28.95971 27243 ft 406 kts 174°
2026-04-26 13:35 38.30327 28.96208 26822 ft 402 kts 174°
2026-04-26 13:35 38.27543 28.96443 26409 ft 401 kts 174°
2026-04-26 13:36 38.24726 28.96683 26005 ft 410 kts 175°
2026-04-26 13:36 38.21870 28.96925 25569 ft 411 kts 175°
2026-04-26 13:36 38.19037 28.97163 25148 ft 406 kts 174°
2026-04-26 13:36 38.16230 28.97399 24723 ft 402 kts 174°
2026-04-26 13:37 38.13419 28.97634 24297 ft 397 kts 174°
2026-04-26 13:37 38.10677 28.97864 23886 ft 393 kts 175°
2026-04-26 13:37 38.07958 28.98092 23479 ft 389 kts 175°
2026-04-26 13:37 38.05272 28.98318 23007 ft 386 kts 175°
2026-04-26 13:38 38.02607 28.98541 22556 ft 381 kts 175°
2026-04-26 13:38 38.00014 28.98759 22165 ft 376 kts 174°
2026-04-26 13:38 37.97415 28.98976 21745 ft 372 kts 175°
2026-04-26 13:38 37.94845 28.99191 21354 ft 368 kts 175°
2026-04-26 13:39 37.92300 28.99404 20966 ft 364 kts 175°
2026-04-26 13:39 37.89784 28.99615 20583 ft 361 kts 175°
2026-04-26 13:39 37.87291 28.99823 20203 ft 357 kts 175°
2026-04-26 13:39 37.84820 29.00029 19828 ft 354 kts 175°
2026-04-26 13:40 37.82370 29.00234 19452 ft 352 kts 175°
2026-04-26 13:40 37.79929 29.00438 19081 ft 352 kts 175°
2026-04-26 13:40 37.77485 29.00641 18716 ft 352 kts 175°
2026-04-26 13:40 37.75022 29.00846 18344 ft 358 kts 175°
2026-04-26 13:41 37.72517 29.01055 17901 ft 361 kts 175°
2026-04-26 13:41 37.70014 29.01263 17466 ft 358 kts 175°
2026-04-26 13:41 37.67541 29.01468 17064 ft 354 kts 175°
2026-04-26 13:41 37.65102 29.01670 16702 ft 349 kts 175°
2026-04-26 13:42 37.62691 29.01870 16317 ft 345 kts 175°
2026-04-26 13:42 37.60308 29.02067 15948 ft 341 kts 175°
2026-04-26 13:42 37.57919 29.02265 15578 ft 338 kts 175°
2026-04-26 13:42 37.55585 29.02458 15232 ft 335 kts 174°
2026-04-26 13:43 37.53272 29.02650 14861 ft 332 kts 174°
2026-04-26 13:43 37.51005 29.02837 14510 ft 329 kts 174°
2026-04-26 13:43 37.48731 29.03025 14156 ft 327 kts 174°
2026-04-26 13:43 37.46469 29.03212 13807 ft 326 kts 174°
2026-04-26 13:44 37.44189 29.03401 13410 ft 329 kts 175°
2026-04-26 13:44 37.41866 29.03594 13017 ft 332 kts 175°
2026-04-26 13:44 37.39554 29.03784 12640 ft 334 kts 174°
2026-04-26 13:44 37.37229 29.03976 12270 ft 333 kts 175°
2026-04-26 13:45 37.34922 29.04166 12097 ft 334 kts 174°
2026-04-26 13:45 37.32601 29.04356 12041 ft 331 kts 174°
2026-04-26 13:45 37.30348 29.04539 12022 ft 317 kts 174°
2026-04-26 13:45 37.28198 29.04715 12018 ft 302 kts 174°
2026-04-26 13:46 37.26151 29.04881 11943 ft 287 kts 174°
2026-04-26 13:46 37.24201 29.05040 11840 ft 274 kts 174°
2026-04-26 13:46 37.22347 29.05195 11717 ft 261 kts 174°
2026-04-26 13:46 37.20586 29.05340 11451 ft 254 kts 174°
2026-04-26 13:47 37.18810 29.05486 11102 ft 252 kts 173°
2026-04-26 13:47 37.17046 29.05633 11102 ft 261 kts 173°
2026-04-26 13:47 37.15243 29.05781 11051 ft 259 kts 173°
2026-04-26 13:47 37.13433 29.05929 11038 ft 254 kts 174°
2026-04-26 13:48 37.11697 29.06070 11028 ft 255 kts 174°
2026-04-26 13:48 37.09898 29.06219 10826 ft 262 kts 174°
2026-04-26 13:48 37.08055 29.06371 10436 ft 266 kts 174°
2026-04-26 13:48 37.06207 29.06326 10042 ft 267 kts 193°
2026-04-26 13:49 37.04538 29.05337 9704 ft 266 kts 210°
2026-04-26 13:49 37.02956 29.04152 9342 ft 263 kts 210°
2026-04-26 13:49 37.01392 29.02988 8988 ft 261 kts 209°
2026-04-26 13:49 36.99824 29.01825 8348 ft 267 kts 209°
2026-04-26 13:50 36.98178 29.00615 7507 ft 281 kts 210°
2026-04-26 13:50 36.96484 28.99371 7042 ft 279 kts 209°
2026-04-26 13:50 36.94860 28.98180 6957 ft 263 kts 209°
2026-04-26 13:50 36.93344 28.97020 6847 ft 248 kts 217°
2026-04-26 13:51 36.92066 28.95603 6505 ft 246 kts 224°
2026-04-26 13:51 36.90793 28.94184 6172 ft 243 kts 222°
2026-04-26 13:51 36.89526 28.92816 5874 ft 239 kts 222°
2026-04-26 13:51 36.88255 28.91460 5399 ft 244 kts 221°
2026-04-26 13:52 36.86959 28.90083 5002 ft 243 kts 221°
2026-04-26 13:52 36.85670 28.88725 4638 ft 243 kts 219°
2026-04-26 13:52 36.84249 28.87572 4229 ft 244 kts 211°
2026-04-26 13:52 36.82820 28.86547 3892 ft 235 kts 212°
2026-04-26 13:53 36.81435 28.85494 3487 ft 233 kts 213°
2026-04-26 13:53 36.80060 28.84404 3004 ft 238 kts 214°
2026-04-26 13:53 36.78713 28.83332 2661 ft 221 kts 213°
2026-04-26 13:53 36.77490 28.82381 2352 ft 189 kts 214°
2026-04-26 13:54 36.76404 28.81530 1750 ft 181 kts 215°
2026-04-26 13:54 36.75324 28.80750 1072 ft 178 kts 207°
2026-04-26 13:54 36.74173 28.80282 629 ft 166 kts 197°
2026-04-26 13:55 36.72129 28.79531 29 ft 138 kts 198°
2026-04-26 13:55 36.71518 28.79336 12 ft 110 kts 202°
2026-04-26 13:55 36.70666 28.78981 13 ft 43 kts 221°
2026-04-26 13:56 36.70570 28.78844 12 ft 4 kts 274°
2026-04-26 13:56 36.70596 28.78810 12 ft 7 kts 338°
2026-04-26 13:56 36.70658 28.78815 12 ft 7 kts 14°
2026-04-26 13:56 36.70712 28.78833 12 ft 1 kts 15°
2026-04-26 13:57 36.70725 28.78837 12 ft 2 kts 15°
2026-04-26 13:57 36.70730 28.78839 12 ft 0 kts 15°
2026-04-26 13:57 36.70736 28.78841 12 ft 2 kts 15°
2026-04-26 13:57 36.70746 28.78845 12 ft 4 kts 15°
2026-04-26 13:58 36.70762 28.78850 12 ft 4 kts 16°
2026-04-26 13:58 36.70801 28.78864 12 ft 6 kts 14°
2026-04-26 13:58 36.70857 28.78882 12 ft 11 kts 14°
2026-04-26 13:58 36.70934 28.78908 12 ft 12 kts 14°
2026-04-26 13:59 36.71010 28.78933 12 ft 13 kts 14°
2026-04-26 13:59 36.71105 28.78966 12 ft 13 kts 17°
2026-04-26 13:59 36.71208 28.79004 12 ft 18 kts 16°
2026-04-26 14:00 36.71339 28.78944 13 ft 7 kts 283°
2026-04-26 14:00 36.71350 28.78887 12 ft 7 kts 283°
2026-04-26 14:00 36.71360 28.78851 12 ft 7 kts 304°
2026-04-26 14:01 36.71402 28.78845 27 ft 5 kts 16°
2026-04-26 14:01 36.71467 28.78867 12 ft 14 kts 15°
2026-04-26 14:01 36.71584 28.78907 11 ft 21 kts 14°
2026-04-26 14:01 36.71675 28.78938 11 ft 19 kts 15°
2026-04-26 14:02 36.71749 28.78981 11 ft 6 kts 73°
2026-04-26 14:02 36.71740 28.79033 11 ft 6 kts 105°
2026-04-26 14:02 36.71737 28.79045 13 ft 0 kts 105°
2026-04-26 14:02 36.71735 28.79053 11 ft 1 kts 105°